Wind_Speed
5 10 11 4 3 4 3 7 5 10 4 5 12 8 3 5 2 1 7 4 7 9 13 26 26 29 28 25 25 23 21 20 19 19 18 18 16 15 14 13 11 9 8 9 9 9 9 10 12
8 10 3 1 4 3 5 6 4 4 4 10 9 11 9 3 8 8 5 2 6 9 11 24 26 28 26 24 24 23 22 19 20 19 17 16 15 14 13 12 10 9 8 9 9 9 10 12 15
10 4 1 4 4 5 5 1 4 4 13 9 4 6 6 6 10 4 3 6 7 8 8 21 26 28 27 26 24 24 22 22 20 17 16 16 15 14 13 12 11 10 9 10 10 11 12 15 18
5 2 3 3 6 7 4 1 3 3 8 10 10 5 3 5 7 4 2 5 9 10 8 21 25 27 28 27 24 24 24 23 19 16 15 16 15 14 14 13 13 11 11 11 12 14 16 18 21
2 2 1 2 5 6 7 4 6 4 3 4 10 5 10 13 8 1 2 3 9 11 14 14 25 27 27 26 24 26 26 24 21 16 15 16 16 15 15 14 14 13 13 14 15 17 19 21 26
1 1 2 3 6 5 4 2 4 3 1 6 7 10 15 19 15 2 3 7 5 9 16 15 21 28 28 27 27 27 28 26 22 17 15 17 17 17 17 16 15 15 15 16 18 19 21 27 29
3 3 4 4 6 6 3 4 4 3 1 5 6 3 7 13 10 8 3 6 7 12 18 21 19 29 29 29 28 28 30 26 22 18 16 16 17 18 18 18 18 17 17 18 19 21 25 29 29
2 3 3 5 3 5 3 3 2 2 5 10 12 5 4 14 13 14 16 15 12 10 16 26 25 29 32 32 31 31 31 26 23 19 17 17 18 19 19 19 19 19 19 20 21 23 28 29 26
0 2 3 5 2 4 2 5 2 4 9 9 15 21 23 21 20 22 21 19 20 13 16 22 27 31 35 35 33 35 31 27 24 21 18 18 19 20 20 19 19 20 21 21 22 25 30 31 28
4 3 7 7 1 3 6 5 9 8 17 18 23 26 24 23 22 23 21 23 23 17 19 22 29 35 34 37 38 36 34 29 27 22 20 19 20 21 22 21 21 20 21 23 26 29 35 31 24
6 6 4 11 10 18 8 7 16 8 18 22 20 28 26 25 25 24 21 24 23 24 20 24 30 25 19 34 45 41 38 31 28 22 21 22 23 23 23 23 24 24 24 27 30 34 32 28 25
5 13 16 12 24 17 8 18 10 19 34 32 33 32 30 30 26 21 22 22 26 23 26 21 28 36 28 6 39 43 38 36 30 26 25 26 26 24 23 24 24 26 26 29 32 29 28 27 23
8 7 15 22 27 23 21 17 11 27 34 37 35 36 35 33 32 29 26 27 26 25 26 24 23 29 40 31 23 29 41 37 32 29 29 27 26 25 24 24 25 28 30 31 32 28 24 22 19
8 13 14 18 25 20 13 25 8 31 28 29 26 29 27 27 25 26 26 28 28 24 24 26 25 25 31 59 40 18 44 39 33 33 31 27 25 25 26 27 27 30 29 28 28 27 24 20 19
10 8 11 18 24 8 12 10 11 33 26 31 31 31 28 28 24 21 21 29 30 28 26 26 28 26 36 43 50 30 27 42 36 36 32 29 26 26 28 28 29 30 28 26 30 30 23 22 18
4 3 4 6 4 8 13 9 6 14 18 29 31 32 29 27 26 21 20 25 27 29 26 25 20 25 27 24 63 48 30 44 39 39 34 31 29 29 29 29 28 29 28 27 32 31 26 22 21
4 6 8 7 9 5 6 7 6 12 19 28 32 33 32 33 26 21 23 22 25 28 27 23 12 13 24 39 55 56 40 45 41 41 37 33 32 28 27 28 29 29 29 29 32 31 28 25 24
7 6 6 5 3 4 7 11 15 20 22 28 36 38 31 32 31 26 21 19 21 26 25 17 8 11 25 38 37 45 34 48 42 41 38 35 34 31 28 29 30 30 30 30 30 31 28 25 26
6 9 12 10 9 5 9 9 13 18 19 21 31 33 28 28 29 29 25 20 22 23 25 19 12 14 14 28 49 51 51 48 41 40 38 36 35 32 31 30 32 31 32 32 31 30 29 29 28
13 13 14 13 8 3 8 13 16 18 14 22 20 16 15 15 12 19 18 23 19 21 27 24 16 17 4 25 39 45 50 44 41 40 39 36 34 33 32 31 32 32 32 32 32 31 32 29 29
14 10 6 8 7 5 8 8 9 7 8 17 18 12 12 10 11 17 21 24 19 22 32 29 24 18 12 30 40 40 40 42 38 36 36 35 32 31 31 30 30 32 32 33 33 32 31 34 31
10 8 10 5 1 4 4 6 5 11 16 7 10 9 8 2 11 13 24 26 19 22 27 32 25 18 15 21 33 37 42 42 39 35 33 33 32 31 30 29 28 30 31 31 32 31 31 30 32
9 6 5 3 1 2 3 2 6 7 5 8 7 4 6 4 9 9 23 24 17 20 25 31 27 20 24 33 31 38 38 38 35 35 33 32 31 30 29 28 27 29 30 30 31 31 31 30 29
2 5 2 3 3 3 9 7 4 3 5 4 3 2 1 4 6 12 14 20 17 18 20 27 27 26 26 26 30 32 40 38 39 34 34 33 31 31 30 28 28 28 30 30 30 29 29 29 29
4 6 2 3 3 6 1 2 9 5 5 7 7 8 5 2 2 7 15 25 24 20 17 25 24 25 35 26 33 37 36 37 36 36 35 35 34 34 32 31 31 30 30 30 29 29 29 30 29
7 8 5 7 5 4 0 6 5 7 7 9 14 11 6 4 6 4 7 14 21 19 16 19 27 30 27 28 34 38 38 34 34 35 36 34 33 32 32 32 32 31 30 29 29 29 29 30 29
3 8 5 3 2 2 4 6 8 7 3 2 5 3 2 5 6 5 3 6 15 19 15 17 25 29 26 30 28 27 36 37 35 32 31 33 34 33 31 31 31 31 31 31 30 30 30 30 30
4 2 3 1 4 5 4 4 5 8 5 3 3 5 8 9 6 2 5 6 8 14 18 18 22 24 26 24 28 30 31 29 30 30 29 27 28 29 31 32 32 32 32 32 32 32 32 31 31
8 5 2 3 5 5 1 5 5 4 3 8 5 9 8 5 3 2 2 1 4 9 12 19 18 18 23 26 25 27 30 31 33 34 32 28 25 25 26 25 29 32 34 34 34 35 34 33 33
6 8 11 4 4 4 3 6 13 16 16 27 27 7 5 4 5 5 5 5 2 4 9 13 18 17 17 23 25 26 27 28 33 36 34 29 30 28 24 25 25 27 30 34 37 37 37 37 37
Wind_Direction
115 127 119 104 74 72 247 258 277 329 46 27 42 46 146 238 303 259 134 258 258 218 189 186 176 173 173 176 175 170 165 160 154 158 156 157 157 155 155 156 159 162 154 145 141 138 137 132 129
109 107 103 87 96 105 262 240 68 118 110 33 42 10 37 301 66 121 148 263 233 214 198 190 178 172 170 174 177 170 166 159 167 165 164 163 166 162 161 162 161 159 154 146 142 140 137 132 126
106 93 101 126 160 185 211 29 99 39 41 42 52 11 339 296 73 133 60 162 201 219 228 198 186 176 177 177 175 168 167 170 178 178 174 171 170 167 166 165 161 159 156 153 148 144 138 132 128
67 132 234 121 230 264 266 280 127 34 27 12 8 325 283 250 354 106 120 200 186 238 237 201 189 179 180 183 179 170 172 177 186 180 181 174 169 172 169 163 159 158 160 156 151 142 136 133 131
349 252 56 232 240 254 273 167 102 89 26 358 334 284 278 245 306 330 92 134 205 242 215 210 195 188 186 187 186 177 179 187 188 192 183 179 174 173 168 163 161 161 162 157 148 139 137 135 132
267 164 73 238 236 261 278 282 106 91 189 280 262 255 263 257 293 306 244 255 172 243 231 227 214 195 192 193 194 187 187 191 193 197 192 184 177 172 169 166 165 164 159 152 144 138 138 135 129
145 110 222 259 256 293 241 134 103 136 266 280 305 233 251 250 260 309 296 255 203 216 240 214 221 204 197 199 198 193 195 195 199 198 199 190 180 173 170 168 166 162 156 148 143 140 138 136 131
276 105 279 239 233 258 168 125 162 224 241 261 270 245 227 244 258 294 303 272 276 243 232 232 216 207 199 200 201 199 200 204 201 202 203 194 182 175 171 171 164 158 153 147 144 142 139 136 134
182 59 233 251 243 258 41 28 343 303 265 237 244 259 270 271 264 281 290 287 283 261 236 228 217 217 207 200 203 202 204 206 204 205 204 195 185 176 171 170 161 159 152 148 145 140 135 131 128
148 176 224 211 322 274 303 326 314 323 291 272 271 265 268 270 267 270 271 276 274 266 237 229 215 209 212 209 204 204 203 206 208 206 201 195 187 179 172 170 163 160 152 146 143 140 135 136 137
196 217 226 285 307 314 297 292 291 274 277 258 261 272 271 267 261 261 262 261 254 261 252 229 228 213 222 204 201 202 204 205 205 205 198 190 185 180 175 171 164 157 153 147 142 139 139 143 139
251 236 244 276 284 289 290 292 260 255 260 271 273 270 271 272 271 258 254 257 250 248 257 254 238 234 224 3 192 200 203 201 200 200 194 191 188 182 177 173 166 157 152 148 144 140 139 149 152
230 249 257 268 284 286 287 264 257 263 268 272 272 270 267 266 267 263 257 254 252 244 251 251 245 240 237 260 311 206 207 204 198 197 195 193 191 183 181 176 163 156 151 150 147 144 147 148 154
273 299 288 289 281 274 267 275 246 271 271 275 268 267 265 265 266 260 250 249 249 245 249 254 255 253 268 260 259 300 207 206 196 196 197 194 194 188 181 174 164 160 158 156 155 146 154 154 152
297 304 295 270 260 242 239 270 223 257 283 274 271 270 268 264 256 252 256 249 249 249 252 247 255 261 281 269 236 272 216 209 196 195 196 195 195 189 178 173 168 162 164 159 154 155 159 161 156
318 279 271 272 204 229 163 258 229 267 287 267 268 262 261 261 257 252 250 248 246 247 246 241 247 276 256 226 222 252 286 204 194 194 193 195 193 186 180 174 173 166 170 163 161 162 169 169 158
244 253 227 299 213 141 178 252 243 254 260 267 272 271 268 262 244 245 241 246 240 241 236 233 247 273 221 188 203 231 267 204 192 192 193 191 189 188 185 180 175 174 173 171 169 171 176 171 158
212 234 246 243 302 170 237 255 271 270 264 265 276 277 275 264 250 236 241 232 236 239 235 222 183 194 193 214 226 244 243 199 191 192 192 188 187 189 188 182 179 177 176 175 173 174 174 173 165
264 271 266 271 259 265 250 256 270 283 276 265 269 272 270 268 267 237 229 225 217 217 218 201 208 194 195 230 236 238 198 192 188 190 188 189 189 190 190 185 184 183 181 180 178 176 173 173 176
245 259 273 268 269 270 273 277 275 269 265 260 266 280 275 281 252 212 215 207 219 221 207 196 201 208 230 201 176 183 187 185 184 185 188 192 192 192 190 190 187 187 185 184 183 182 175 177 184
246 249 250 255 301 301 339 286 246 276 254 267 252 280 286 282 208 193 200 200 214 210 202 201 205 202 186 170 170 172 184 178 177 182 187 193 194 193 192 193 191 191 191 188 190 189 188 182 189
229 236 234 255 126 243 74 289 295 271 275 256 252 273 273 248 190 199 192 196 209 215 209 204 203 208 196 178 182 181 183 175 184 184 189 193 195 195 195 194 194 195 194 195 195 194 196 197 194
246 228 168 162 213 20 298 283 262 261 248 238 233 261 278 213 201 177 196 200 208 218 202 199 199 200 197 183 191 187 188 186 186 188 191 194 195 198 199 198 198 199 199 199 200 200 203 206 209
180 151 79 67 94 291 198 185 278 245 224 185 213 210 3 129 184 197 204 200 192 203 199 198 196 196 195 193 197 200 197 198 192 192 193 196 197 199 203 202 203 202 204 203 205 205 209 211 214
127 105 319 360 201 238 219 159 257 277 201 189 204 194 132 254 233 173 170 194 189 191 197 200 204 196 190 192 203 204 210 209 204 198 195 198 201 203 205 205 205 206 207 208 209 209 214 216 216
189 159 173 194 195 255 1 234 247 271 241 218 202 173 161 192 264 223 184 186 196 194 200 210 221 218 208 208 199 207 206 210 212 208 203 206 211 210 209 210 211 210 210 212 214 215 217 220 222
212 213 191 2 287 26 228 282 310 276 222 169 145 143 107 144 168 227 192 197 199 206 205 213 218 224 219 215 215 209 210 214 217 216 218 215 214 216 214 216 218 217 216 217 218 220 220 223 226
167 110 162 215 185 218 261 246 230 299 263 192 144 124 118 105 109 166 235 221 204 208 215 214 218 219 221 223 227 223 213 213 217 218 222 223 226 227 220 219 223 224 222 222 222 225 226 226 228
349 6 284 249 159 190 244 261 225 127 6 173 167 141 114 84 62 109 112 169 216 196 212 221 217 216 216 220 235 232 223 212 222 227 227 226 227 228 230 231 231 230 230 229 229 231 231 230 230
68 48 37 17 342 309 229 254 64 47 30 28 359 103 82 29 43 61 59 59 106 192 212 218 218 222 222 224 227 233 239 235 223 213 221 225 231 232 238 239 236 240 239 237 235 236 236 235 235
Height
1503 1503 1504 1506 1517 1520 1521 1508 1492 1492 1491 1493 1490 1490 1494 1494 1495 1504 1496 1496 1495 1496 1498 1500 1502 1504 1509 1513 1514 1516 1519 1520 1523 1525 1525 1527 1529 1530 1531 1533 1535 1537 1537 1538 1540 1541 1542 1544 1545
1503 1504 1505 1506 1522 1528 1521 1495 1496 1494 1493 1492 1489 1491 1492 1494 1493 1495 1496 1495 1495 1497 1499 1500 1503 1506 1509 1513 1516 1517 1519 1522 1523 1524 1525 1526 1528 1530 1531 1533 1534 1536 1537 1538 1539 1541 1542 1544 1546
1503 1503 1506 1509 1519 1524 1513 1491 1492 1490 1490 1490 1492 1494 1494 1493 1495 1495 1496 1493 1496 1497 1499 1501 1502 1506 1510 1513 1515 1518 1520 1522 1523 1524 1525 1526 1528 1529 1531 1532 1534 1535 1537 1538 1539 1541 1542 1544 1546
1503 1505 1507 1512 1512 1502 1494 1489 1488 1488 1489 1491 1494 1494 1495 1494 1495 1495 1497 1495 1496 1497 1500 1502 1504 1506 1509 1512 1515 1517 1520 1522 1524 1524 1525 1526 1527 1529 1530 1531 1533 1535 1536 1538 1539 1541 1542 1544 1546
1502 1504 1510 1512 1506 1495 1487 1487 1485 1488 1490 1492 1494 1495 1494 1491 1494 1496 1496 1499 1496 1497 1499 1502 1505 1508 1510 1512 1515 1516 1518 1521 1524 1526 1524 1525 1526 1527 1529 1530 1532 1534 1536 1537 1539 1541 1543 1545 1547
1502 1503 1514 1515 1502 1489 1485 1483 1484 1486 1489 1492 1493 1493 1492 1492 1491 1493 1495 1495 1497 1497 1498 1501 1504 1507 1510 1513 1514 1516 1517 1519 1523 1525 1526 1525 1526 1527 1528 1530 1531 1533 1535 1537 1539 1541 1543 1545 1548
1501 1505 1509 1502 1498 1491 1483 1483 1484 1485 1487 1490 1490 1490 1488 1489 1489 1489 1492 1494 1496 1496 1498 1499 1501 1504 1508 1511 1514 1515 1517 1518 1522 1523 1525 1525 1525 1526 1528 1529 1530 1532 1534 1536 1539 1541 1544 1546 1549
1500 1501 1502 1498 1496 1491 1481 1481 1482 1482 1483 1486 1488 1486 1485 1486 1487 1486 1487 1490 1493 1495 1498 1497 1500 1501 1504 1508 1511 1514 1516 1518 1520 1522 1524 1525 1525 1525 1527 1528 1529 1530 1533 1536 1539 1541 1544 1547 1550
1499 1506 1508 1496 1487 1484 1482 1482 1481 1481 1481 1481 1482 1481 1482 1483 1485 1485 1486 1487 1490 1493 1495 1496 1499 1500 1500 1503 1508 1510 1515 1517 1519 1520 1523 1524 1525 1524 1525 1527 1528 1530 1532 1535 1538 1541 1545 1549 1551
1498 1506 1495 1482 1481 1481 1479 1479 1480 1480 1477 1476 1477 1476 1478 1479 1480 1481 1483 1484 1486 1489 1490 1493 1494 1495 1502 1502 1504 1508 1511 1515 1517 1519 1521 1523 1524 1525 1525 1526 1528 1530 1533 1536 1538 1542 1545 1549 1551
1493 1495 1485 1478 1477 1478 1476 1475 1477 1478 1469 1470 1470 1470 1473 1474 1474 1476 1478 1480 1482 1484 1486 1489 1488 1492 1492 1494 1494 1503 1505 1510 1515 1518 1520 1522 1523 1524 1525 1526 1528 1530 1532 1535 1539 1543 1546 1549 1552
1490 1481 1482 1477 1476 1476 1474 1473 1471 1472 1462 1464 1464 1465 1466 1467 1470 1471 1473 1475 1475 1478 1481 1484 1484 1489 1491 1496 1488 1497 1502 1503 1511 1515 1517 1519 1521 1523 1524 1526 1528 1530 1532 1535 1540 1543 1546 1549 1553
1484 1479 1477 1475 1474 1472 1471 1467 1468 1458 1459 1457 1458 1456 1457 1460 1462 1464 1467 1470 1469 1470 1473 1477 1479 1482 1481 1473 1470 1490 1498 1502 1506 1511 1513 1516 1519 1521 1523 1526 1529 1531 1533 1535 1539 1542 1544 1548 1553
1477 1476 1472 1470 1466 1468 1468 1460 1466 1448 1452 1450 1451 1448 1451 1452 1454 1457 1459 1461 1461 1464 1466 1469 1473 1475 1476 1476 1477 1484 1495 1500 1502 1505 1509 1513 1517 1519 1521 1524 1528 1530 1533 1536 1539 1541 1543 1547 1552
1476 1476 1471 1464 1458 1462 1460 1461 1454 1445 1446 1443 1442 1441 1443 1445 1448 1450 1453 1453 1455 1458 1458 1462 1464 1464 1463 1459 1479 1485 1494 1498 1498 1500 1505 1510 1515 1517 1519 1522 1526 1530 1533 1535 1539 1542 1543 1547 1551
1477 1476 1477 1457 1451 1453 1456 1460 1444 1443 1442 1437 1434 1435 1436 1437 1440 1443 1446 1446 1449 1451 1453 1455 1455 1455 1451 1446 1470 1486 1488 1489 1492 1496 1501 1507 1511 1514 1517 1520 1524 1528 1532 1534 1538 1541 1541 1546 1551
1479 1480 1470 1461 1448 1450 1453 1452 1439 1438 1438 1432 1428 1426 1428 1428 1432 1436 1438 1440 1443 1444 1445 1447 1451 1447 1440 1445 1464 1477 1482 1485 1488 1493 1498 1504 1508 1511 1515 1518 1522 1526 1530 1534 1536 1540 1542 1544 1550
1478 1476 1464 1460 1449 1450 1451 1449 1436 1434 1434 1428 1421 1416 1418 1417 1422 1427 1432 1435 1437 1439 1441 1443 1444 1443 1442 1447 1458 1467 1475 1479 1484 1489 1496 1500 1505 1509 1513 1517 1520 1524 1528 1532 1535 1538 1542 1544 1548
1463 1463 1463 1456 1449 1450 1447 1443 1437 1428 1425 1420 1414 1409 1410 1410 1414 1419 1424 1429 1432 1435 1438 1439 1438 1433 1437 1432 1445 1453 1463 1474 1480 1487 1493 1498 1501 1505 1509 1514 1518 1522 1526 1529 1533 1536 1538 1543 1547
1460 1462 1459 1451 1445 1445 1443 1437 1429 1422 1415 1410 1406 1404 1405 1406 1408 1413 1418 1422 1426 1430 1433 1436 1437 1437 1428 1427 1435 1448 1462 1470 1476 1484 1490 1495 1499 1502 1506 1511 1515 1520 1524 1528 1530 1533 1535 1540 1544
1452 1457 1458 1455 1446 1444 1442 1435 1426 1412 1407 1403 1402 1402 1403 1403 1405 1410 1413 1417 1422 1425 1429 1433 1435 1435 1433 1434 1440 1452 1467 1468 1474 1483 1487 1492 1498 1500 1503 1509 1513 1517 1522 1525 1527 1529 1532 1534 1541
1452 1445 1445 1446 1455 1465 1446 1456 1427 1413 1405 1400 1399 1400 1401 1401 1403 1407 1411 1412 1417 1420 1425 1428 1430 1430 1432 1435 1443 1449 1461 1463 1471 1476 1483 1489 1495 1497 1501 1506 1511 1515 1519 1522 1525 1528 1530 1532 1535
1440 1441 1440 1442 1453 1456 1453 1467 1432 1414 1407 1399 1398 1398 1398 1399 1401 1403 1409 1411 1414 1416 1420 1424 1429 1431 1433 1437 1443 1450 1459 1464 1468 1472 1480 1487 1492 1495 1499 1504 1508 1513 1516 1520 1522 1524 1528 1531 1535
1434 1439 1442 1447 1460 1476 1448 1450 1439 1411 1398 1396 1396 1397 1396 1397 1399 1403 1405 1410 1414 1416 1419 1422 1424 1430 1435 1440 1445 1450 1456 1461 1467 1469 1474 1482 1487 1493 1496 1501 1506 1510 1513 1516 1519 1521 1524 1528 1532
1434 1446 1489 1486 1459 1458 1454 1452 1417 1403 1397 1394 1394 1395 1397 1397 1399 1401 1404 1408 1412 1415 1416 1420 1424 1430 1436 1439 1446 1452 1456 1461 1466 1468 1472 1476 1482 1487 1492 1497 1501 1505 1509 1512 1515 1519 1521 1525 1528
1435 1440 1459 1466 1471 1449 1433 1434 1413 1396 1392 1390 1391 1393 1395 1398 1398 1400 1402 1405 1409 1412 1415 1418 1425 1430 1433 1438 1443 1449 1454 1456 1461 1466 1470 1473 1478 1483 1488 1492 1497 1500 1504 1508 1512 1515 1518 1522 1526
1430 1434 1429 1439 1441 1462 1438 1419 1403 1392 1393 1393 1393 1393 1395 1398 1401 1401 1403 1404 1407 1409 1413 1415 1421 1426 1430 1435 1439 1443 1449 1451 1456 1462 1467 1471 1475 1480 1486 1489 1493 1497 1501 1504 1508 1511 1513 1518 1521
1422 1425 1433 1448 1453 1444 1433 1423 1423 1400 1397 1397 1396 1397 1399 1400 1403 1404 1403 1405 1406 1410 1412 1416 1421 1422 1426 1430 1434 1438 1443 1445 1452 1458 1462 1467 1473 1478 1482 1485 1488 1492 1496 1500 1502 1506 1509 1513 1516
1448 1443 1431 1430 1435 1438 1443 1434 1407 1402 1399 1399 1399 1400 1401 1402 1404 1406 1406 1406 1406 1408 1410 1415 1417 1420 1424 1425 1429 1432 1436 1441 1448 1452 1455 1463 1469 1472 1476 1480 1482 1487 1490 1494 1498 1501 1504 1507 1510
1457 1467 1467 1462 1444 1454 1439 1433 1408 1416 1419 1417 1418 1404 1404 1404 1404 1405 1406 1407 1408 1409 1411 1413 1416 1417 1418 1424 1427 1428 1432 1437 1443 1448 1452 1455 1460 1465 1469 1471 1476 1481 1485 1490 1493 1495 1497 1502 1504